Time,TemperatureF,DewpointF,PressureIn,WindDirection,WindDirectionDegrees,WindSpeedMPH,WindSpeedGustMPH,Humidity,HourlyPrecipIn,Conditions,Clouds,dailyrainin,SoftwareType,DateUTC
2013-01-13 00:04:00,33.7,27.9,30.01,WNW,283,0.0,12.0,79,0.00,,,0.00,Wunderground v.1.15,2013-01-13 08:04:00,
2013-01-13 00:09:00,33.5,27.7,30.02,WNW,283,0.0,12.0,79,0.00,,,0.00,Wunderground v.1.15,2013-01-13 08:09:00,
2013-01-13 00:14:00,33.4,27.6,30.01,WNW,283,0.0,12.0,79,0.00,,,0.00,Wunderground v.1.15,2013-01-13 08:14:00,
2013-01-13 00:19:00,33.4,27.6,30.01,WNW,283,0.0,12.0,79,0.00,,,0.00,Wunderground v.1.15,2013-01-13 08:19:00,
2013-01-13 00:24:00,33.4,27.6,30.01,WNW,283,0.0,12.0,79,0.00,,,0.00,Wunderground v.1.15,2013-01-13 08:24:00,
2013-01-13 00:29:00,33.3,27.5,30.01,WNW,283,0.0,12.0,79,0.00,,,0.00,Wunderground v.1.15,2013-01-13 08:29:00,
2013-01-13 00:36:00,33.4,27.6,30.01,WNW,283,0.0,12.0,79,0.00,,,0.00,Wunderground v.1.15,2013-01-13 08:36:00,
2013-01-13 00:41:00,33.4,27.6,30.01,WNW,283,0.0,12.0,79,0.00,,,0.00,Wunderground v.1.15,2013-01-13 08:41:00,
2013-01-13 00:46:00,33.6,27.8,30.01,WNW,283,0.0,12.0,79,0.00,,,0.00,Wunderground v.1.15,2013-01-13 08:46:00,
2013-01-13 00:51:00,33.8,27.7,30.01,WNW,283,0.0,12.0,78,0.00,,,0.00,Wunderground v.1.15,2013-01-13 08:51:00,
2013-01-13 00:56:00,33.9,27.8,30.01,WNW,283,0.0,12.0,78,0.00,,,0.00,Wunderground v.1.15,2013-01-13 08:56:00,
2013-01-13 01:01:00,33.9,27.8,30.01,WNW,283,0.0,12.0,78,0.00,,,0.00,Wunderground v.1.15,2013-01-13 09:01:00,
2013-01-13 01:06:00,33.9,27.4,30.01,WNW,283,0.0,12.0,77,0.00,,,0.00,Wunderground v.1.15,2013-01-13 09:06:00,
2013-01-13 01:11:00,34.0,27.9,30.01,WNW,283,0.0,12.0,78,0.00,,,0.00,Wunderground v.1.15,2013-01-13 09:11:00,
2013-01-13 01:16:00,34.2,27.7,30.01,WNW,283,0.0,12.0,77,0.00,,,0.00,Wunderground v.1.15,2013-01-13 09:16:00,
2013-01-13 01:21:00,34.3,27.8,30.01,WNW,283,0.0,12.0,77,0.00,,,0.00,Wunderground v.1.15,2013-01-13 09:21:00,
2013-01-13 01:26:00,34.5,27.7,30.02,WNW,283,0.0,12.0,76,0.00,,,0.00,Wunderground v.1.15,2013-01-13 09:26:00,
2013-01-13 01:31:00,34.6,27.8,30.02,WNW,283,0.0,12.0,76,0.00,,,0.00,Wunderground v.1.15,2013-01-13 09:31:00,
2013-01-13 01:36:00,34.7,28.2,30.02,WNW,283,0.0,12.0,77,0.00,,,0.00,Wunderground v.1.15,2013-01-13 09:36:00,
2013-01-13 01:42:00,34.8,28.0,30.02,WNW,283,0.0,12.0,76,0.00,,,0.00,Wunderground v.1.15,2013-01-13 09:42:00,
2013-01-13 01:47:00,35.1,28.0,30.02,WNW,283,0.0,12.0,75,0.00,,,0.00,Wunderground v.1.15,2013-01-13 09:47:00,
2013-01-13 01:52:00,35.2,28.1,30.02,WNW,283,0.0,12.0,75,0.00,,,0.00,Wunderground v.1.15,2013-01-13 09:52:00,
2013-01-13 01:57:00,35.2,28.1,30.02,WNW,283,0.0,12.0,75,0.00,,,0.00,Wunderground v.1.15,2013-01-13 09:57:00,
2013-01-13 02:02:00,35.2,28.1,30.02,WNW,283,0.0,12.0,75,0.00,,,0.00,Wunderground v.1.15,2013-01-13 10:02:00,
2013-01-13 02:07:00,35.2,28.1,30.02,WNW,283,0.0,12.0,75,0.00,,,0.00,Wunderground v.1.15,2013-01-13 10:07:00,
2013-01-13 02:12:00,35.2,28.4,30.02,WNW,283,0.0,12.0,76,0.00,,,0.00,Wunderground v.1.15,2013-01-13 10:12:00,
2013-01-13 02:17:00,35.2,28.4,30.02,WNW,283,0.0,12.0,76,0.00,,,0.00,Wunderground v.1.15,2013-01-13 10:17:00,
2013-01-13 02:23:00,35.1,28.3,30.03,WNW,283,0.0,12.0,76,0.00,,,0.00,Wunderground v.1.15,2013-01-13 10:23:00,
2013-01-13 02:28:00,35.0,28.2,30.03,WNW,283,0.0,12.0,76,0.00,,,0.00,Wunderground v.1.15,2013-01-13 10:28:00,
2013-01-13 02:33:00,34.8,28.0,30.03,WNW,283,0.0,12.0,76,0.00,,,0.00,Wunderground v.1.15,2013-01-13 10:33:00,
2013-01-13 02:38:00,34.8,28.0,30.03,WNW,283,0.0,12.0,76,0.00,,,0.00,Wunderground v.1.15,2013-01-13 10:38:00,
2013-01-13 02:43:00,34.7,27.9,30.03,WNW,283,0.0,12.0,76,0.00,,,0.00,Wunderground v.1.15,2013-01-13 10:43:00,
2013-01-13 02:48:00,34.5,27.7,30.03,WNW,283,0.0,12.0,76,0.00,,,0.00,Wunderground v.1.15,2013-01-13 10:48:00,
2013-01-13 02:54:00,34.3,27.8,30.03,WNW,283,0.0,12.0,77,0.00,,,0.00,Wunderground v.1.15,2013-01-13 10:54:00,
2013-01-13 02:59:00,34.1,27.6,30.03,WNW,283,0.0,12.0,77,0.00,,,0.00,Wunderground v.1.15,2013-01-13 10:59:00,
2013-01-13 03:05:00,33.8,27.0,30.03,WNW,283,0.0,12.0,76,0.00,,,0.00,Wunderground v.1.15,2013-01-13 11:05:00,
2013-01-13 03:10:00,33.5,27.1,30.03,WNW,283,0.0,12.0,77,0.00,,,0.00,Wunderground v.1.15,2013-01-13 11:10:00,
2013-01-13 03:15:00,33.2,27.1,30.03,WNW,283,0.0,12.0,78,0.00,,,0.00,Wunderground v.1.15,2013-01-13 11:15:00,
2013-01-13 03:20:00,32.8,26.7,30.03,WNW,283,0.0,12.0,78,0.00,,,0.00,Wunderground v.1.15,2013-01-13 11:20:00,
2013-01-13 03:25:00,32.5,26.7,30.03,WNW,283,0.0,12.0,79,0.00,,,0.00,Wunderground v.1.15,2013-01-13 11:25:00,
2013-01-13 03:30:00,32.3,26.5,30.03,WNW,283,0.0,12.0,79,0.00,,,0.00,Wunderground v.1.15,2013-01-13 11:30:00,
2013-01-13 03:35:00,32.1,26.6,30.02,WNW,283,0.0,12.0,80,0.00,,,0.00,Wunderground v.1.15,2013-01-13 11:35:00,
2013-01-13 03:40:00,31.9,26.1,30.02,WNW,283,0.0,12.0,79,0.00,,,0.00,Wunderground v.1.15,2013-01-13 11:40:00,
2013-01-13 03:46:00,31.9,25.5,30.02,WNW,283,0.0,12.0,77,0.00,,,0.00,Wunderground v.1.15,2013-01-13 11:46:00,
2013-01-13 03:51:00,32.1,26.0,30.02,WNW,284,0.0,12.0,78,0.00,,,0.00,Wunderground v.1.15,2013-01-13 11:51:00,
2013-01-13 03:56:00,32.0,26.2,30.02,WNW,284,0.0,12.0,79,0.00,,,0.00,Wunderground v.1.15,2013-01-13 11:56:00,
2013-01-13 04:01:00,31.8,26.0,30.02,WNW,284,0.0,12.0,79,0.00,,,0.00,Wunderground v.1.15,2013-01-13 12:01:00,
2013-01-13 04:07:00,31.5,26.0,30.02,WNW,283,0.0,12.0,80,0.00,,,0.00,Wunderground v.1.15,2013-01-13 12:07:00,
2013-01-13 04:12:00,31.3,25.8,30.02,WNW,284,0.0,12.0,80,0.00,,,0.00,Wunderground v.1.15,2013-01-13 12:12:00,
2013-01-13 04:17:00,31.0,25.6,30.02,WNW,284,0.0,12.0,80,0.00,,,0.00,Wunderground v.1.15,2013-01-13 12:17:00,
2013-01-13 04:22:00,30.8,25.1,30.03,WNW,283,0.0,12.0,79,0.00,,,0.00,Wunderground v.1.15,2013-01-13 12:22:00,
2013-01-13 04:27:00,30.7,25.3,30.03,WNW,284,0.0,12.0,80,0.00,,,0.00,Wunderground v.1.15,2013-01-13 12:27:00,
2013-01-13 04:32:00,30.6,25.2,30.03,WNW,284,0.0,12.0,80,0.00,,,0.00,Wunderground v.1.15,2013-01-13 12:32:00,
2013-01-13 04:38:00,30.6,25.2,30.02,WNW,283,0.0,12.0,80,0.00,,,0.00,Wunderground v.1.15,2013-01-13 12:38:00,
2013-01-13 04:43:00,30.9,25.2,30.03,WNW,284,0.0,12.0,79,0.00,,,0.00,Wunderground v.1.15,2013-01-13 12:43:00,
2013-01-13 04:48:00,31.1,24.7,30.03,WNW,284,0.0,12.0,77,0.00,,,0.00,Wunderground v.1.15,2013-01-13 12:48:00,
2013-01-13 04:53:00,31.3,24.6,30.03,WNW,284,0.0,12.0,76,0.00,,,0.00,Wunderground v.1.15,2013-01-13 12:53:00,
2013-01-13 04:58:00,31.6,24.6,30.03,WNW,284,0.0,12.0,75,0.00,,,0.00,Wunderground v.1.15,2013-01-13 12:58:00,
2013-01-13 05:04:00,31.8,25.1,30.03,WNW,284,0.0,12.0,76,0.00,,,0.00,Wunderground v.1.15,2013-01-13 13:04:00,
2013-01-13 05:09:00,32.3,25.3,30.03,WNW,283,0.0,12.0,75,0.00,,,0.00,Wunderground v.1.15,2013-01-13 13:09:00,
2013-01-13 05:14:00,32.7,25.3,30.03,WNW,284,0.0,12.0,74,0.00,,,0.00,Wunderground v.1.15,2013-01-13 13:14:00,
2013-01-13 05:20:00,33.2,24.8,30.03,WNW,284,0.0,12.0,71,0.00,,,0.00,Wunderground v.1.15,2013-01-13 13:20:00,
2013-01-13 05:25:00,33.5,24.4,30.03,WNW,283,0.0,12.0,69,0.00,,,0.00,Wunderground v.1.15,2013-01-13 13:25:00,
2013-01-13 05:30:00,33.6,24.2,30.03,WNW,284,0.0,12.0,68,0.00,,,0.00,Wunderground v.1.15,2013-01-13 13:30:00,
2013-01-13 05:35:00,33.6,23.8,30.04,WNW,283,0.0,12.0,67,0.00,,,0.00,Wunderground v.1.15,2013-01-13 13:35:00,
2013-01-13 05:40:00,33.6,23.8,30.04,WNW,283,0.0,12.0,67,0.00,,,0.00,Wunderground v.1.15,2013-01-13 13:40:00,
2013-01-13 05:45:00,33.5,23.4,30.04,WNW,284,0.0,12.0,66,0.00,,,0.00,Wunderground v.1.15,2013-01-13 13:45:00,
2013-01-13 05:50:00,33.4,23.6,30.04,WNW,284,0.0,12.0,67,0.00,,,0.00,Wunderground v.1.15,2013-01-13 13:50:00,
2013-01-13 05:55:00,33.4,24.0,30.04,WNW,284,0.0,12.0,68,0.00,,,0.00,Wunderground v.1.15,2013-01-13 13:55:00,
2013-01-13 06:02:00,33.3,24.2,30.05,WNW,284,0.0,12.0,69,0.00,,,0.00,Wunderground v.1.15,2013-01-13 14:02:00,
2013-01-13 06:07:00,33.1,24.0,30.05,WNW,284,0.0,12.0,69,0.00,,,0.00,Wunderground v.1.15,2013-01-13 14:07:00,
2013-01-13 06:12:00,32.9,23.8,30.05,WNW,284,0.0,12.0,69,0.00,,,0.00,Wunderground v.1.15,2013-01-13 14:12:00,
2013-01-13 06:17:00,32.6,23.9,30.05,WNW,284,0.0,12.0,70,0.00,,,0.00,Wunderground v.1.15,2013-01-13 14:17:00,
2013-01-13 06:22:00,32.3,23.6,30.05,WNW,283,0.0,12.0,70,0.00,,,0.00,Wunderground v.1.15,2013-01-13 14:22:00,
2013-01-13 06:27:00,31.9,23.6,30.05,WNW,284,0.0,12.0,71,0.00,,,0.00,Wunderground v.1.15,2013-01-13 14:27:00,
2013-01-13 06:32:00,31.7,23.4,30.05,WNW,283,0.0,12.0,71,0.00,,,0.00,Wunderground v.1.15,2013-01-13 14:32:00,
2013-01-13 06:37:00,31.5,23.2,30.05,WNW,284,0.0,12.0,71,0.00,,,0.00,Wunderground v.1.15,2013-01-13 14:37:00,
2013-01-13 06:44:00,31.3,23.6,30.06,WNW,283,0.0,12.0,73,0.00,,,0.00,Wunderground v.1.15,2013-01-13 14:44:00,
2013-01-13 06:49:00,31.1,23.5,30.06,WNW,284,0.0,12.0,73,0.00,,,0.00,Wunderground v.1.15,2013-01-13 14:49:00,
2013-01-13 06:54:00,30.8,23.2,30.06,WNW,283,0.0,12.0,73,0.00,,,0.00,Wunderground v.1.15,2013-01-13 14:54:00,
2013-01-13 06:59:00,30.7,23.4,30.06,WNW,284,0.0,12.0,74,0.00,,,0.00,Wunderground v.1.15,2013-01-13 14:59:00,
2013-01-13 07:04:00,30.5,23.2,30.07,WNW,284,0.0,12.0,74,0.00,,,0.00,Wunderground v.1.15,2013-01-13 15:04:00,
2013-01-13 07:09:00,30.3,23.0,30.07,WNW,284,0.0,12.0,74,0.00,,,0.00,Wunderground v.1.15,2013-01-13 15:09:00,
2013-01-13 07:14:00,30.2,23.2,30.07,WNW,283,0.0,12.0,75,0.00,,,0.00,Wunderground v.1.15,2013-01-13 15:14:00,
2013-01-13 07:19:00,30.2,22.9,30.07,WNW,284,0.0,12.0,74,0.00,,,0.00,Wunderground v.1.15,2013-01-13 15:19:00,
2013-01-13 07:25:00,30.5,23.5,30.07,WNW,284,0.0,12.0,75,0.00,,,0.00,Wunderground v.1.15,2013-01-13 15:25:00,
2013-01-13 07:30:00,30.6,23.6,30.08,WNW,284,0.0,12.0,75,0.00,,,0.00,Wunderground v.1.15,2013-01-13 15:30:00,
2013-01-13 07:35:00,30.7,23.7,30.08,WNW,284,0.0,12.0,75,0.00,,,0.00,Wunderground v.1.15,2013-01-13 15:35:00,
2013-01-13 07:41:00,30.8,23.5,30.08,WNW,284,0.0,12.0,74,0.00,,,0.00,Wunderground v.1.15,2013-01-13 15:41:00,
2013-01-13 07:46:00,30.9,23.6,30.08,WNW,283,0.0,12.0,74,0.00,,,0.00,Wunderground v.1.15,2013-01-13 15:46:00,
2013-01-13 07:51:00,31.0,23.7,30.07,WNW,284,0.0,12.0,74,0.00,,,0.00,Wunderground v.1.15,2013-01-13 15:51:00,
2013-01-13 07:56:00,31.5,23.5,30.08,ESE,105,0.0,12.0,72,0.00,,,0.00,Wunderground v.1.15,2013-01-13 15:56:00,
2013-01-13 08:01:00,33.1,23.7,30.08,ESE,103,0.0,12.0,68,0.00,,,0.00,Wunderground v.1.15,2013-01-13 16:01:00,
2013-01-13 08:06:00,34.2,24.4,30.09,East,100,0.0,12.0,67,0.00,,,0.00,Wunderground v.1.15,2013-01-13 16:06:00,
2013-01-13 08:11:00,34.4,24.2,30.09,East,100,0.0,12.0,66,0.00,,,0.00,Wunderground v.1.15,2013-01-13 16:11:00,
2013-01-13 08:17:00,34.8,25.0,30.09,East,100,0.0,12.0,67,0.00,,,0.00,Wunderground v.1.15,2013-01-13 16:17:00,
2013-01-13 08:22:00,35.7,24.7,30.09,East,100,0.0,12.0,64,0.00,,,0.00,Wunderground v.1.15,2013-01-13 16:22:00,
2013-01-13 08:27:00,37.2,24.6,30.09,East,99,0.0,12.0,60,0.00,,,0.00,Wunderground v.1.15,2013-01-13 16:27:00,
2013-01-13 08:32:00,39.6,24.3,30.09,East,82,0.0,12.0,54,0.00,,,0.00,Wunderground v.1.15,2013-01-13 16:32:00,
2013-01-13 08:37:00,41.9,22.6,30.09,East,101,1.0,12.0,46,0.00,,,0.00,Wunderground v.1.15,2013-01-13 16:37:00,
2013-01-13 08:42:00,43.9,22.8,30.09,East,98,0.0,12.0,43,0.00,,,0.00,Wunderground v.1.15,2013-01-13 16:42:00,
2013-01-13 08:47:00,45.2,22.9,30.09,East,98,1.0,12.0,41,0.00,,,0.00,Wunderground v.1.15,2013-01-13 16:47:00,
2013-01-13 08:52:00,46.3,22.0,30.09,ENE,76,2.0,12.0,38,0.00,,,0.00,Wunderground v.1.15,2013-01-13 16:52:00,
2013-01-13 08:57:00,46.9,22.0,30.09,East,90,2.0,12.0,37,0.00,,,0.00,Wunderground v.1.15,2013-01-13 16:57:00,
2013-01-13 09:03:00,47.7,22.7,30.09,ESE,107,1.0,12.0,37,0.00,,,0.00,Wunderground v.1.15,2013-01-13 17:03:00,
2013-01-13 09:08:00,48.3,21.9,30.08,ESE,104,1.0,12.0,35,0.00,,,0.00,Wunderground v.1.15,2013-01-13 17:08:00,
2013-01-13 09:14:00,48.8,22.3,30.08,East,96,1.0,12.0,35,0.00,,,0.00,Wunderground v.1.15,2013-01-13 17:14:00,
2013-01-13 09:19:00,49.2,22.0,30.08,East,96,0.0,12.0,34,0.00,,,0.00,Wunderground v.1.15,2013-01-13 17:19:00,
2013-01-13 09:24:00,49.6,21.6,30.08,ESE,106,1.0,12.0,33,0.00,,,0.00,Wunderground v.1.15,2013-01-13 17:24:00,
2013-01-13 09:29:00,50.3,21.5,30.08,ESE,117,1.0,12.0,32,0.00,,,0.00,Wunderground v.1.15,2013-01-13 17:29:00,
2013-01-13 09:34:00,50.6,21.0,30.09,ESE,107,1.0,12.0,31,0.00,,,0.00,Wunderground v.1.15,2013-01-13 17:34:00,
2013-01-13 09:39:00,50.7,20.4,30.09,ESE,112,1.0,12.0,30,0.00,,,0.00,Wunderground v.1.15,2013-01-13 17:39:00,
2013-01-13 09:44:00,51.2,21.6,30.09,ESE,110,1.0,12.0,31,0.00,,,0.00,Wunderground v.1.15,2013-01-13 17:44:00,
2013-01-13 09:49:00,52.1,21.6,30.09,ESE,111,0.0,12.0,30,0.00,,,0.00,Wunderground v.1.15,2013-01-13 17:49:00,
2013-01-13 09:54:00,52.7,21.3,30.09,ESE,110,0.0,12.0,29,0.00,,,0.00,Wunderground v.1.15,2013-01-13 17:54:00,
2013-01-13 09:59:00,53.1,22.4,30.09,ESE,111,0.0,12.0,30,0.00,,,0.00,Wunderground v.1.15,2013-01-13 17:59:00,
2013-01-13 10:04:00,53.6,20.4,30.09,ESE,105,1.0,12.0,27,0.00,,,0.00,Wunderground v.1.15,2013-01-13 18:04:00,
2013-01-13 10:09:00,53.7,19.6,30.08,East,91,1.0,12.0,26,0.00,,,0.00,Wunderground v.1.15,2013-01-13 18:09:00,
2013-01-13 10:14:00,53.7,19.6,30.08,East,92,1.0,12.0,26,0.00,,,0.00,Wunderground v.1.15,2013-01-13 18:14:00,
2013-01-13 10:19:00,54.0,20.7,30.08,ESE,107,0.0,12.0,27,0.00,,,0.00,Wunderground v.1.15,2013-01-13 18:19:00,
2013-01-13 10:24:00,54.2,19.1,30.07,ESE,113,1.0,12.0,25,0.00,,,0.00,Wunderground v.1.15,2013-01-13 18:24:00,
2013-01-13 10:29:00,54.5,20.3,30.07,ESE,109,1.0,12.0,26,0.00,,,0.00,Wunderground v.1.15,2013-01-13 18:29:00,
2013-01-13 10:34:00,54.6,19.4,30.07,ESE,103,1.0,12.0,25,0.00,,,0.00,Wunderground v.1.15,2013-01-13 18:34:00,
2013-01-13 10:39:00,54.5,19.3,30.06,ENE,72,2.0,12.0,25,0.00,,,0.00,Wunderground v.1.15,2013-01-13 18:39:00,
2013-01-13 10:44:00,54.5,18.4,30.06,ENE,78,1.0,12.0,24,0.00,,,0.00,Wunderground v.1.15,2013-01-13 18:44:00,
2013-01-13 10:51:00,54.9,19.7,30.05,East,84,0.0,12.0,25,0.00,,,0.00,Wunderground v.1.15,2013-01-13 18:51:00,
2013-01-13 10:56:00,55.4,19.2,30.05,East,81,0.0,12.0,24,0.00,,,0.00,Wunderground v.1.15,2013-01-13 18:56:00,
2013-01-13 11:01:00,55.9,19.6,30.05,SE,140,1.0,12.0,24,0.00,,,0.00,Wunderground v.1.15,2013-01-13 19:01:00,
2013-01-13 11:06:00,56.3,19.9,30.04,SE,140,1.0,12.0,24,0.00,,,0.00,Wunderground v.1.15,2013-01-13 19:06:00,
2013-01-13 11:11:00,56.6,19.2,30.04,SE,143,0.0,12.0,23,0.00,,,0.00,Wunderground v.1.15,2013-01-13 19:11:00,
2013-01-13 11:16:00,56.1,17.7,30.04,SSE,159,0.0,12.0,22,0.00,,,0.00,Wunderground v.1.15,2013-01-13 19:16:00,
2013-01-13 11:21:00,56.3,18.9,30.03,South,173,0.0,12.0,23,0.00,,,0.00,Wunderground v.1.15,2013-01-13 19:21:00,
2013-01-13 11:26:00,56.3,17.9,30.03,SW,218,0.0,12.0,22,0.00,,,0.00,Wunderground v.1.15,2013-01-13 19:26:00,
2013-01-13 11:32:00,56.5,20.1,30.03,SW,225,0.0,12.0,24,0.00,,,0.00,Wunderground v.1.15,2013-01-13 19:32:00,
2013-01-13 11:37:00,56.6,19.2,30.02,West,279,1.0,12.0,23,0.00,,,0.00,Wunderground v.1.15,2013-01-13 19:37:00,
2013-01-13 11:42:00,56.6,19.2,30.02,WNW,282,1.0,12.0,23,0.00,,,0.00,Wunderground v.1.15,2013-01-13 19:42:00,
2013-01-13 11:47:00,56.7,21.2,30.01,WNW,303,1.0,12.0,25,0.00,,,0.00,Wunderground v.1.15,2013-01-13 19:47:00,
2013-01-13 11:52:00,57.1,21.6,30.02,NW,311,2.0,12.0,25,0.00,,,0.00,Wunderground v.1.15,2013-01-13 19:52:00,
2013-01-13 11:57:00,57.9,20.3,30.01,WNW,298,1.0,12.0,23,0.00,,,0.00,Wunderground v.1.15,2013-01-13 19:57:00,
2013-01-13 12:03:00,58.0,20.4,30.00,SW,231,1.0,12.0,23,0.00,,,0.00,Wunderground v.1.15,2013-01-13 20:03:00,
2013-01-13 12:08:00,57.6,20.0,29.99,WSW,240,1.0,12.0,23,0.00,,,0.00,Wunderground v.1.15,2013-01-13 20:08:00,
2013-01-13 12:13:00,56.9,20.4,29.99,South,172,1.0,12.0,24,0.00,,,0.00,Wunderground v.1.15,2013-01-13 20:13:00,
2013-01-13 12:18:00,56.8,20.3,29.99,South,188,1.0,12.0,24,0.00,,,0.00,Wunderground v.1.15,2013-01-13 20:18:00,
2013-01-13 12:24:00,56.5,21.1,29.98,SSW,198,2.0,12.0,25,0.00,,,0.00,Wunderground v.1.15,2013-01-13 20:24:00,
2013-01-13 12:29:00,57.1,21.6,29.98,WNW,294,2.0,12.0,25,0.00,,,0.00,Wunderground v.1.15,2013-01-13 20:29:00,
2013-01-13 12:34:00,57.9,21.3,29.98,West,262,2.0,12.0,24,0.00,,,0.00,Wunderground v.1.15,2013-01-13 20:34:00,
2013-01-13 12:39:00,58.5,21.8,29.98,West,265,2.0,2.0,24,0.00,,,0.00,Wunderground v.1.15,2013-01-13 20:39:00,
2013-01-13 12:44:00,58.6,22.8,29.98,WNW,292,1.0,12.0,25,0.00,,,0.00,Wunderground v.1.15,2013-01-13 20:44:00,
2013-01-13 12:49:00,58.6,22.8,29.98,WNW,286,2.0,12.0,25,0.00,,,0.00,Wunderground v.1.15,2013-01-13 20:49:00,
2013-01-13 12:54:00,58.8,21.0,29.98,NW,319,2.0,12.0,23,0.00,,,0.00,Wunderground v.1.15,2013-01-13 20:54:00,
2013-01-13 12:59:00,58.7,21.0,29.98,NW,319,2.0,2.0,23,0.00,,,0.00,Wunderground v.1.15,2013-01-13 20:59:00,
2013-01-13 13:05:00,58.6,20.9,29.98,West,280,3.0,12.0,23,0.00,,,0.00,Wunderground v.1.15,2013-01-13 21:05:00,
2013-01-13 13:10:00,58.4,22.7,29.98,WNW,287,3.0,4.0,25,0.00,,,0.00,Wunderground v.1.15,2013-01-13 21:10:00,
2013-01-13 13:16:00,58.4,23.6,29.98,West,277,2.0,12.0,26,0.00,,,0.00,Wunderground v.1.15,2013-01-13 21:16:00,
2013-01-13 13:21:00,58.2,22.5,29.98,West,269,3.0,12.0,25,0.00,,,0.00,Wunderground v.1.15,2013-01-13 21:21:00,
2013-01-13 13:26:00,58.0,22.3,29.98,West,274,5.0,12.0,25,0.00,,,0.00,Wunderground v.1.15,2013-01-13 21:26:00,
2013-01-13 13:31:00,57.9,23.2,29.98,West,269,5.0,12.0,26,0.00,,,0.00,Wunderground v.1.15,2013-01-13 21:31:00,
2013-01-13 13:36:00,57.8,22.2,29.98,West,272,4.0,12.0,25,0.00,,,0.00,Wunderground v.1.15,2013-01-13 21:36:00,
2013-01-13 13:41:00,57.5,23.7,29.98,West,261,3.0,12.0,27,0.00,,,0.00,Wunderground v.1.15,2013-01-13 21:41:00,
2013-01-13 13:47:00,57.1,24.3,29.98,WNW,296,5.0,12.0,28,0.00,,,0.00,Wunderground v.1.15,2013-01-13 21:47:00,
2013-01-13 13:52:00,57.0,25.0,29.98,WSW,254,4.0,12.0,29,0.00,,,0.00,Wunderground v.1.15,2013-01-13 21:52:00,
2013-01-13 13:57:00,56.9,23.2,29.98,SW,226,4.0,12.0,27,0.00,,,0.00,Wunderground v.1.15,2013-01-13 21:57:00,
2013-01-13 14:02:00,56.8,24.0,29.98,West,280,5.0,12.0,28,0.00,,,0.00,Wunderground v.1.15,2013-01-13 22:02:00,
2013-01-13 14:07:00,56.6,23.8,29.98,West,267,5.0,12.0,28,0.00,,,0.00,Wunderground v.1.15,2013-01-13 22:07:00,
2013-01-13 14:13:00,56.8,24.0,29.97,WSW,253,5.0,12.0,28,0.00,,,0.00,Wunderground v.1.15,2013-01-13 22:13:00,
2013-01-13 14:18:00,56.6,23.0,29.98,West,261,5.0,12.0,27,0.00,,,0.00,Wunderground v.1.15,2013-01-13 22:18:00,
2013-01-13 14:23:00,56.3,23.6,29.97,West,269,6.0,12.0,28,0.00,,,0.00,Wunderground v.1.15,2013-01-13 22:23:00,
2013-01-13 14:28:00,55.9,24.1,29.97,WNW,286,6.0,15.0,29,0.00,,,0.00,Wunderground v.1.15,2013-01-13 22:28:00,
2013-01-13 14:33:00,55.8,24.8,29.97,West,280,5.0,12.0,30,0.00,,,0.00,Wunderground v.1.15,2013-01-13 22:33:00,
2013-01-13 14:38:00,55.8,25.6,29.97,West,267,4.0,12.0,31,0.00,,,0.00,Wunderground v.1.15,2013-01-13 22:38:00,
2013-01-13 14:43:00,55.8,24.0,29.97,NW,310,4.0,12.0,29,0.00,,,0.00,Wunderground v.1.15,2013-01-13 22:43:00,
2013-01-13 14:48:00,55.7,24.7,29.97,West,272,5.0,12.0,30,0.00,,,0.00,Wunderground v.1.15,2013-01-13 22:48:00,
2013-01-13 14:53:00,55.7,24.7,29.97,WNW,286,5.0,12.0,30,0.00,,,0.00,Wunderground v.1.15,2013-01-13 22:53:00,
2013-01-13 14:58:00,56.0,25.0,29.97,West,273,4.0,12.0,30,0.00,,,0.00,Wunderground v.1.15,2013-01-13 22:58:00,
2013-01-13 15:03:00,55.6,24.6,29.97,WNW,300,4.0,12.0,30,0.00,,,0.00,Wunderground v.1.15,2013-01-13 23:03:00,
2013-01-13 15:08:00,55.2,23.5,29.97,NW,308,5.0,12.0,29,0.00,,,0.00,Wunderground v.1.15,2013-01-13 23:08:00,
2013-01-13 15:13:00,55.2,25.1,29.97,WNW,298,4.0,12.0,31,0.00,,,0.00,Wunderground v.1.15,2013-01-13 23:13:00,
2013-01-13 15:18:00,55.5,24.5,29.97,WSW,249,3.0,12.0,30,0.00,,,0.00,Wunderground v.1.15,2013-01-13 23:18:00,
2013-01-13 15:24:00,55.2,24.3,29.97,WSW,238,5.0,12.0,30,0.00,,,0.00,Wunderground v.1.15,2013-01-13 23:24:00,
2013-01-13 15:29:00,54.9,24.8,29.97,West,261,6.0,12.0,31,0.00,,,0.00,Wunderground v.1.15,2013-01-13 23:29:00,
2013-01-13 15:35:00,54.9,25.6,29.97,WNW,288,5.0,12.0,32,0.00,,,0.00,Wunderground v.1.15,2013-01-13 23:35:00,
2013-01-13 15:40:00,54.9,26.3,29.97,WNW,286,4.0,12.0,33,0.00,,,0.00,Wunderground v.1.15,2013-01-13 23:40:00,
2013-01-13 15:45:00,54.9,27.7,29.98,WNW,292,4.0,12.0,35,0.00,,,0.00,Wunderground v.1.15,2013-01-13 23:45:00,
2013-01-13 15:50:00,54.6,27.5,29.98,WSW,246,4.0,12.0,35,0.00,,,0.00,Wunderground v.1.15,2013-01-13 23:50:00,
2013-01-13 15:55:00,54.2,26.4,29.98,West,277,5.0,12.0,34,0.00,,,0.00,Wunderground v.1.15,2013-01-13 23:55:00,
2013-01-13 16:00:00,53.6,26.6,29.98,West,272,4.0,12.0,35,0.00,,,0.00,Wunderground v.1.15,2013-01-14 00:00:00,
2013-01-13 16:05:00,53.0,26.7,29.98,West,267,4.0,12.0,36,0.00,,,0.00,Wunderground v.1.15,2013-01-14 00:05:00,
2013-01-13 16:10:00,52.5,26.9,29.98,West,271,4.0,13.0,37,0.00,,,0.00,Wunderground v.1.15,2013-01-14 00:10:00,
2013-01-13 16:16:00,52.1,27.2,29.98,West,275,4.0,13.0,38,0.00,,,0.00,Wunderground v.1.15,2013-01-14 00:16:00,
2013-01-13 16:21:00,52.0,28.4,29.98,West,266,3.0,12.0,40,0.00,,,0.00,Wunderground v.1.15,2013-01-14 00:21:00,
2013-01-13 16:27:00,51.8,28.2,29.97,WSW,251,3.0,12.0,40,0.00,,,0.00,Wunderground v.1.15,2013-01-14 00:27:00,
2013-01-13 16:32:00,51.5,27.9,29.97,WSW,252,2.0,12.0,40,0.00,,,0.00,Wunderground v.1.15,2013-01-14 00:32:00,
2013-01-13 16:37:00,51.2,28.9,29.97,West,271,2.0,12.0,42,0.00,,,0.00,Wunderground v.1.15,2013-01-14 00:37:00,
2013-01-13 16:42:00,51.0,28.7,29.97,WSW,258,3.0,12.0,42,0.00,,,0.00,Wunderground v.1.15,2013-01-14 00:42:00,
2013-01-13 16:47:00,50.7,29.0,29.97,WSW,256,3.0,12.0,43,0.00,,,0.00,Wunderground v.1.15,2013-01-14 00:47:00,
2013-01-13 16:52:00,50.4,29.8,29.97,West,263,2.0,12.0,45,0.00,,,0.00,Wunderground v.1.15,2013-01-14 00:52:00,
2013-01-13 16:58:00,50.1,30.6,29.97,West,263,1.0,12.0,47,0.00,,,0.00,Wunderground v.1.15,2013-01-14 00:58:00,
2013-01-13 17:03:00,49.8,30.4,29.96,West,263,0.0,12.0,47,0.00,,,0.00,Wunderground v.1.15,2013-01-14 01:03:00,
2013-01-13 17:08:00,49.5,31.1,29.96,West,263,0.0,12.0,49,0.00,,,0.00,Wunderground v.1.15,2013-01-14 01:08:00,
2013-01-13 17:14:00,49.0,31.2,29.96,West,263,0.0,12.0,50,0.00,,,0.00,Wunderground v.1.15,2013-01-14 01:14:00,
2013-01-13 17:19:00,48.7,31.4,29.96,West,263,0.0,12.0,51,0.00,,,0.00,Wunderground v.1.15,2013-01-14 01:19:00,
2013-01-13 17:24:00,48.2,31.4,29.96,West,263,0.0,12.0,52,0.00,,,0.00,Wunderground v.1.15,2013-01-14 01:24:00,
2013-01-13 17:29:00,47.5,31.2,29.96,West,263,0.0,12.0,53,0.00,,,0.00,Wunderground v.1.15,2013-01-14 01:29:00,
2013-01-13 17:34:00,46.9,31.1,29.97,West,263,0.0,12.0,54,0.00,,,0.00,Wunderground v.1.15,2013-01-14 01:34:00,
2013-01-13 17:40:00,46.3,31.0,29.97,West,263,0.0,12.0,55,0.00,,,0.00,Wunderground v.1.15,2013-01-14 01:40:00,
2013-01-13 17:45:00,45.8,31.4,29.97,West,263,0.0,12.0,57,0.00,,,0.00,Wunderground v.1.15,2013-01-14 01:45:00,
2013-01-13 17:50:00,45.4,31.0,29.97,West,263,0.0,12.0,57,0.00,,,0.00,Wunderground v.1.15,2013-01-14 01:50:00,
2013-01-13 17:55:00,45.0,31.1,29.97,West,263,0.0,12.0,58,0.00,,,0.00,Wunderground v.1.15,2013-01-14 01:55:00,
2013-01-13 18:00:00,44.6,31.1,29.97,West,263,0.0,12.0,59,0.00,,,0.00,Wunderground v.1.15,2013-01-14 02:00:00,
2013-01-13 18:05:00,44.2,31.6,29.98,West,263,0.0,12.0,61,0.00,,,0.00,Wunderground v.1.15,2013-01-14 02:05:00,
2013-01-13 18:10:00,43.8,31.6,29.98,West,263,0.0,12.0,62,0.00,,,0.00,Wunderground v.1.15,2013-01-14 02:10:00,
2013-01-13 18:15:00,43.4,31.2,29.98,West,263,0.0,12.0,62,0.00,,,0.00,Wunderground v.1.15,2013-01-14 02:15:00,
2013-01-13 18:20:00,42.9,31.6,29.98,West,263,0.0,12.0,64,0.00,,,0.00,Wunderground v.1.15,2013-01-14 02:20:00,
2013-01-13 18:25:00,42.6,31.7,29.98,West,263,0.0,12.0,65,0.00,,,0.00,Wunderground v.1.15,2013-01-14 02:25:00,
2013-01-13 18:32:00,42.1,31.6,29.98,West,263,0.0,12.0,66,0.00,,,0.00,Wunderground v.1.15,2013-01-14 02:32:00,
2013-01-13 18:37:00,41.8,31.6,29.99,West,263,0.0,12.0,67,0.00,,,0.00,Wunderground v.1.15,2013-01-14 02:37:00,
2013-01-13 18:42:00,41.5,31.4,29.99,West,263,0.0,12.0,67,0.00,,,0.00,Wunderground v.1.15,2013-01-14 02:42:00,
2013-01-13 18:47:00,41.3,31.2,29.99,West,263,0.0,12.0,67,0.00,,,0.00,Wunderground v.1.15,2013-01-14 02:47:00,
2013-01-13 18:52:00,41.0,30.9,29.99,West,263,0.0,12.0,67,0.00,,,0.00,Wunderground v.1.15,2013-01-14 02:52:00,
2013-01-13 18:57:00,40.8,31.1,29.99,West,263,0.0,12.0,68,0.00,,,0.00,Wunderground v.1.15,2013-01-14 02:57:00,
2013-01-13 19:02:00,40.5,31.1,29.99,West,263,0.0,12.0,69,0.00,,,0.00,Wunderground v.1.15,2013-01-14 03:02:00,
2013-01-13 19:07:00,40.4,31.0,29.99,West,263,0.0,12.0,69,0.00,,,0.00,Wunderground v.1.15,2013-01-14 03:07:00,
2013-01-13 19:13:00,40.4,31.0,29.99,West,263,0.0,12.0,69,0.00,,,0.00,Wunderground v.1.15,2013-01-14 03:13:00,
2013-01-13 19:18:00,40.4,31.0,29.99,West,263,0.0,12.0,69,0.00,,,0.00,Wunderground v.1.15,2013-01-14 03:18:00,
2013-01-13 19:23:00,40.2,30.8,29.99,West,263,0.0,12.0,69,0.00,,,0.00,Wunderground v.1.15,2013-01-14 03:23:00,
2013-01-13 19:28:00,40.1,30.7,29.99,West,263,0.0,12.0,69,0.00,,,0.00,Wunderground v.1.15,2013-01-14 03:28:00,
2013-01-13 19:33:00,40.0,30.6,29.99,West,263,0.0,12.0,69,0.00,,,0.00,Wunderground v.1.15,2013-01-14 03:33:00,
2013-01-13 19:39:00,40.1,30.7,29.99,West,263,0.0,12.0,69,0.00,,,0.00,Wunderground v.1.15,2013-01-14 03:39:00,
2013-01-13 19:44:00,40.2,30.8,30.00,West,263,0.0,12.0,69,0.00,,,0.00,Wunderground v.1.15,2013-01-14 03:44:00,
2013-01-13 19:49:00,40.4,31.0,30.00,West,267,0.0,12.0,69,0.00,,,0.00,Wunderground v.1.15,2013-01-14 03:49:00,
2013-01-13 19:54:00,40.5,30.8,30.00,West,273,0.0,12.0,68,0.00,,,0.00,Wunderground v.1.15,2013-01-14 03:54:00,
2013-01-13 19:59:00,40.7,30.6,30.00,West,272,1.0,12.0,67,0.00,,,0.00,Wunderground v.1.15,2013-01-14 03:59:00,
2013-01-13 20:04:00,40.8,30.7,30.00,West,269,1.0,12.0,67,0.00,,,0.00,Wunderground v.1.15,2013-01-14 04:04:00,
2013-01-13 20:09:00,40.8,30.7,30.00,West,281,1.0,1.0,67,0.00,,,0.00,Wunderground v.1.15,2013-01-14 04:09:00,
2013-01-13 20:14:00,40.7,30.6,30.00,ENE,72,1.0,12.0,67,0.00,,,0.00,Wunderground v.1.15,2013-01-14 04:14:00,
2013-01-13 20:19:00,40.7,29.8,30.00,East,89,1.0,1.0,65,0.00,,,0.00,Wunderground v.1.15,2013-01-14 04:19:00,
2013-01-13 20:24:00,40.7,29.5,30.01,East,91,1.0,12.0,64,0.00,,,0.00,Wunderground v.1.15,2013-01-14 04:24:00,
2013-01-13 20:29:00,40.8,29.2,30.01,East,91,1.0,1.0,63,0.00,,,0.00,Wunderground v.1.15,2013-01-14 04:29:00,
2013-01-13 20:34:00,40.7,29.1,30.01,East,91,0.0,12.0,63,0.00,,,0.00,Wunderground v.1.15,2013-01-14 04:34:00,
2013-01-13 20:39:00,40.5,28.1,30.01,East,91,0.0,12.0,61,0.00,,,0.00,Wunderground v.1.15,2013-01-14 04:39:00,
2013-01-13 20:44:00,40.5,27.7,30.01,East,91,0.0,12.0,60,0.00,,,0.00,Wunderground v.1.15,2013-01-14 04:44:00,
2013-01-13 20:49:00,40.6,26.5,30.01,East,92,0.0,12.0,57,0.00,,,0.00,Wunderground v.1.15,2013-01-14 04:49:00,
2013-01-13 20:54:00,41.0,25.6,30.01,East,83,2.0,12.0,54,0.00,,,0.00,Wunderground v.1.15,2013-01-14 04:54:00,
2013-01-13 21:01:00,41.6,24.8,30.01,East,88,2.0,12.0,51,0.00,,,0.00,Wunderground v.1.15,2013-01-14 05:01:00,
2013-01-13 21:03:00,41.9,25.1,30.01,ENE,78,2.0,12.0,51,0.00,,,0.00,Wunderground v.1.15,2013-01-14 05:03:00,
2013-01-13 21:04:00,42.0,25.2,30.01,East,90,2.0,12.0,51,0.00,,,0.00,Wunderground v.1.15,2013-01-14 05:04:00,
2013-01-13 21:08:00,42.3,24.0,30.01,East,80,2.0,12.0,48,0.00,,,0.00,Wunderground v.1.15,2013-01-14 05:08:00,
2013-01-13 21:13:00,42.5,23.7,30.01,East,99,1.0,12.0,47,0.00,,,0.00,Wunderground v.1.15,2013-01-14 05:13:00,
2013-01-13 21:19:00,42.5,24.2,30.02,ESE,113,1.0,1.0,48,0.00,,,0.00,Wunderground v.1.15,2013-01-14 05:19:00,
2013-01-13 21:24:00,42.4,24.1,30.02,ESE,113,0.0,12.0,48,0.00,,,0.00,Wunderground v.1.15,2013-01-14 05:24:00,
2013-01-13 21:29:00,42.1,23.3,30.03,ESE,111,0.0,12.0,47,0.00,,,0.00,Wunderground v.1.15,2013-01-14 05:29:00,
2013-01-13 21:34:00,41.9,23.1,30.03,ESE,111,0.0,12.0,47,0.00,,,0.00,Wunderground v.1.15,2013-01-14 05:34:00,
2013-01-13 21:39:00,41.6,23.3,30.03,ESE,103,1.0,1.0,48,0.00,,,0.00,Wunderground v.1.15,2013-01-14 05:39:00,
2013-01-13 21:45:00,41.3,23.1,30.03,East,87,1.0,12.0,48,0.00,,,0.00,Wunderground v.1.15,2013-01-14 05:45:00,
2013-01-13 21:50:00,41.0,22.8,30.03,East,79,0.0,12.0,48,0.00,,,0.00,Wunderground v.1.15,2013-01-14 05:50:00,
2013-01-13 21:55:00,40.8,22.6,30.04,ENE,59,0.0,12.0,48,0.00,,,0.00,Wunderground v.1.15,2013-01-14 05:55:00,
2013-01-13 22:00:00,41.1,21.9,30.03,ENE,72,2.0,12.0,46,0.00,,,0.00,Wunderground v.1.15,2013-01-14 06:00:00,
2013-01-13 22:05:00,41.5,21.2,30.04,NE,41,2.0,12.0,44,0.00,,,0.00,Wunderground v.1.15,2013-01-14 06:05:00,
2013-01-13 22:10:00,41.9,21.0,30.04,ENE,68,2.0,12.0,43,0.00,,,0.00,Wunderground v.1.15,2013-01-14 06:10:00,
2013-01-13 22:15:00,42.3,20.2,30.04,East,86,3.0,12.0,41,0.00,,,0.00,Wunderground v.1.15,2013-01-14 06:15:00,
2013-01-13 22:20:00,42.6,19.9,30.04,East,86,3.0,12.0,40,0.00,,,0.00,Wunderground v.1.15,2013-01-14 06:20:00,
2013-01-13 22:25:00,42.7,19.4,30.05,East,89,2.0,12.0,39,0.00,,,0.00,Wunderground v.1.15,2013-01-14 06:25:00,
2013-01-13 22:30:00,42.6,19.3,30.05,ESE,107,1.0,12.0,39,0.00,,,0.00,Wunderground v.1.15,2013-01-14 06:30:00,
2013-01-13 22:35:00,42.6,19.3,30.05,East,96,1.0,12.0,39,0.00,,,0.00,Wunderground v.1.15,2013-01-14 06:35:00,
2013-01-13 22:41:00,42.4,17.9,30.06,ESE,107,1.0,12.0,37,0.00,,,0.00,Wunderground v.1.15,2013-01-14 06:41:00,
2013-01-13 22:46:00,42.5,18.0,30.06,SE,143,1.0,12.0,37,0.00,,,0.00,Wunderground v.1.15,2013-01-14 06:46:00,
2013-01-13 22:51:00,42.5,18.0,30.06,ESE,107,2.0,12.0,37,0.00,,,0.00,Wunderground v.1.15,2013-01-14 06:51:00,
2013-01-13 22:57:00,42.4,17.9,30.06,NNE,21,2.0,12.0,37,0.00,,,0.00,Wunderground v.1.15,2013-01-14 06:57:00,
2013-01-13 23:02:00,42.3,16.6,30.06,ENE,64,2.0,12.0,35,0.00,,,0.00,Wunderground v.1.15,2013-01-14 07:02:00,
2013-01-13 23:07:00,42.4,16.6,30.06,ENE,71,2.0,12.0,35,0.00,,,0.00,Wunderground v.1.15,2013-01-14 07:07:00,
2013-01-13 23:12:00,42.5,15.4,30.06,NE,46,3.0,12.0,33,0.00,,,0.00,Wunderground v.1.15,2013-01-14 07:12:00,
2013-01-13 23:17:00,42.7,14.8,30.06,NE,53,4.0,15.0,32,0.00,,,0.00,Wunderground v.1.15,2013-01-14 07:17:00,
2013-01-13 23:22:00,42.9,15.0,30.06,ESE,116,5.0,12.0,32,0.00,,,0.00,Wunderground v.1.15,2013-01-14 07:22:00,
2013-01-13 23:27:00,42.9,13.5,30.06,NE,40,5.0,12.0,30,0.00,,,0.00,Wunderground v.1.15,2013-01-14 07:27:00,
2013-01-13 23:33:00,43.0,12.9,30.06,ENE,60,5.0,15.0,29,0.00,,,0.00,Wunderground v.1.15,2013-01-14 07:33:00,
2013-01-13 23:39:00,43.5,13.3,30.06,East,79,8.0,8.0,29,0.00,,,0.00,Wunderground v.1.15,2013-01-14 07:39:00,
2013-01-13 23:44:00,43.5,12.5,30.07,NE,53,8.0,14.0,28,0.00,,,0.00,Wunderground v.1.15,2013-01-14 07:44:00,
2013-01-13 23:50:00,43.6,12.6,30.07,East,82,8.0,8.0,28,0.00,,,0.00,Wunderground v.1.15,2013-01-14 07:50:00,
2013-01-13 23:55:00,43.5,11.7,30.07,ENE,60,7.0,12.0,27,0.00,,,0.00,Wunderground v.1.15,2013-01-14 07:55:00,